sat.trackr.live / text

‹ back to catalog

STARLINK-30272

NORAD 57860 · 2023-141W

PAYLOAD ACTIVE UNKNOWN

§ Identity

Operator
Country
US
Launch date
2023-09-12
Launch site
AFWTR
Launch vehicle
Mass (kg)
RCS (m²)

Purposes: comms

External: N2YO · Heavens-Above · Gunter

§ Orbital elements

Epoch: 2026-09-20T22:35:56.808672Z

Period
94.01 min
Inclination
53.1604°
Eccentricity
0.0001178
Mean motion
15.31700827 rev/d
Perigee alt
469.9 km
Apogee alt
471.5 km
Semi-major
6,848.9 km
B*
8.9389e-6
RAAN
95.6588°
Arg perigee
88.7602°
Mean anomaly
271.3534°
Rev number
17,024

§ Raw data

STARLINK-302721 57860U 23141W   26263.94162973 -.00000088  00000+0  89389-5 0  99952 57860  53.1604  95.6588 0001178  88.7602 271.3534 15.31700827170249

JSON: /api/v1/satellites/57860 · /tle

For live sub-satellite position, see the globe view (requires WebGL).

§ Visibility from observer

Set your observer location to see the next 7 days of passes ≥ 10°. The values pass through the URL so the page stays shareable.

No JS? Fill the form by hand. The geolocation button needs JavaScript.